Location: Peterborough
(44.3091°N, 78.3197°W)
Time: 19:44:39
(UTC-04:00)

A-11 Canister half - Pass Details

Date: 22 March 2023
Orbit: 1526 x 1682 km, 47.3° (Epoch: 06 June)

Event Time Altitude Azimuth Distance (km) Brightness Sun altitude
Rises 19:36:33 0° 255° (WSW) 4,905 13.3 -2.4°
Reaches altitude 10° 19:39:44 10° 256° (WSW) 3,904 12.7 -2.9°
Maximum altitude 19:49:47 83° 345° (NNW) 1,636 9.2 -4.7°
Drops below altitude 10° 19:59:29 10° 74° (ENE) 3,788 10.5 -6.4°
Enters shadow 20:01:13 - 75° (ENE) 4,331 10.8 -6.7°
